When you browse on this site, cookies collect data to enhance your experience and personalize the content and advertising you see.
Visit our Privacy Policy to learn more. By continuing to use the site, you agree to this use of cookies and data.
  • en France
  • Liste des pays
  • À 7 jours
  • Température de l'eau
  • Carte météo
  • Widgets météo
  • user-avatar
    Se connecter

    Météo par heure à Boradigah

    Ce jour, 21 Octobre, Lundi

    Heure Température Précipitation Vent Pression Humidité
    00:00 +16°C° 0 mm 0 m/s 768 mmHg 60%
    01:00 +18°C° 0 mm 1 m/s 768 mmHg 61%
    02:00 +16°C° 0 mm 1 m/s 768 mmHg 62%
    03:00 +16°C° 0 mm 1 m/s 768 mmHg 63%
    04:00 +16°C° 0 mm 1 m/s 768 mmHg 64%
    05:00 +16°C° 0 mm 1 m/s 768 mmHg 65%
    06:00 +16°C° 0 mm 1 m/s 769 mmHg 66%
    07:00 +18°C° 0 mm 1 m/s 769 mmHg 64%
    08:00 +19°C° 0 mm 2 m/s 769 mmHg 61%
    09:00 +20°C° 0 mm 2 m/s 769 mmHg 59%
    10:00 +21°C° 0 mm 3 m/s 769 mmHg 56%
    11:00 +22°C° 0 mm 3 m/s 769 mmHg 53%
    12:00 +24°C° 0 mm 3 m/s 769 mmHg 50%
    13:00 +22°C° 0 mm 3 m/s 768 mmHg 54%
    14:00 +22°C° 0 mm 3 m/s 768 mmHg 58%
    15:00 +21°C° 0 mm 3 m/s 768 mmHg 62%
    16:00 +20°C° 0 mm 2 m/s 768 mmHg 67%
    17:00 +19°C° 0 mm 2 m/s 768 mmHg 73%
    18:00 +18°C° 0 mm 2 m/s 768 mmHg 79%
    19:00 +17°C° 0 mm 2 m/s 768 mmHg 79%
    20:00 +18°C° 0 mm 1 m/s 768 mmHg 80%
    21:00 +18°C° 0 mm 1 m/s 768 mmHg 80%
    22:00 +16°C° 0 mm 1 m/s 768 mmHg 79%
    23:00 +16°C° 0 mm 1 m/s 768 mmHg 78%

    Demain, 22 Octobre, Mardi

    Heure Température Précipitation Vent Pression Humidité
    00:00 +16°C° 0 mm 1 m/s 768 mmHg 77%
    01:00 +16°C° 0 mm 1 m/s 768 mmHg 76%
    02:00 +15°C° 0 mm 1 m/s 768 mmHg 76%
    03:00 +15°C° 0 mm 1 m/s 767 mmHg 75%
    04:00 +15°C° 0 mm 1 m/s 767 mmHg 75%
    05:00 +15°C° 0 mm 1 m/s 768 mmHg 75%
    06:00 +15°C° 0 mm 1 m/s 768 mmHg 75%
    07:00 +18°C° 0 mm 1 m/s 768 mmHg 70%
    08:00 +19°C° 0 mm 1 m/s 768 mmHg 65%
    09:00 +21°C° 0 mm 1 m/s 768 mmHg 60%
    10:00 +21°C° 0 mm 2 m/s 767 mmHg 57%
    11:00 +23°C° 0 mm 2 m/s 767 mmHg 54%
    12:00 +22°C° 0 mm 3 m/s 767 mmHg 51%
    13:00 +22°C° 0 mm 3 m/s 767 mmHg 54%
    14:00 +22°C° 0 mm 3 m/s 766 mmHg 57%
    15:00 +21°C° 0 mm 3 m/s 766 mmHg 60%
    16:00 +20°C° 0 mm 3 m/s 767 mmHg 64%
    17:00 +19°C° 0 mm 2 m/s 767 mmHg 69%
    18:00 +19°C° 0 mm 2 m/s 767 mmHg 73%
    19:00 +18°C° 0.1 mm 2 m/s 767 mmHg 75%
    20:00 +19°C° 0.1 mm 1 m/s 767 mmHg 76%
    21:00 +19°C° 0.1 mm 1 m/s 767 mmHg 77%
    22:00 +19°C° 0.1 mm 1 m/s 767 mmHg 79%
    23:00 +19°C° 0.1 mm 1 m/s 767 mmHg 80%

    Après-demain, 23 Octobre, Mercredi

    Heure Température Précipitation Vent Pression Humidité
    00:00 +18°C° 0.1 mm 1 m/s 767 mmHg 82%
    01:00 +18°C° 0.1 mm 1 m/s 767 mmHg 83%
    02:00 +18°C° 0.1 mm 1 m/s 767 mmHg 83%
    03:00 +17°C° 0.1 mm 2 m/s 766 mmHg 84%
    04:00 +18°C° 0 mm 1 m/s 767 mmHg 83%
    05:00 +16°C° 0 mm 1 m/s 767 mmHg 82%
    06:00 +16°C° 0 mm 1 m/s 767 mmHg 80%
    07:00 +18°C° 0 mm 1 m/s 767 mmHg 78%
    08:00 +18°C° 0 mm 1 m/s 767 mmHg 76%
    09:00 +19°C° 0 mm 1 m/s 768 mmHg 74%
    10:00 +19°C° 0.1 mm 1 m/s 767 mmHg 75%
    11:00 +19°C° 0.1 mm 1 m/s 767 mmHg 75%
    12:00 +19°C° 0.1 mm 1 m/s 767 mmHg 75%
    13:00 +19°C° 0 mm 1 m/s 767 mmHg 75%
    14:00 +19°C° 0 mm 2 m/s 767 mmHg 76%
    15:00 +19°C° 0 mm 2 m/s 766 mmHg 76%
    16:00 +18°C° 0 mm 2 m/s 767 mmHg 81%
    17:00 +18°C° 0 mm 1 m/s 767 mmHg 86%
    18:00 +16°C° 0 mm 1 m/s 767 mmHg 90%
    19:00 +16°C° 0 mm 1 m/s 767 mmHg 90%
    20:00 +16°C° 0 mm 1 m/s 767 mmHg 89%
    21:00 +16°C° 0 mm 1 m/s 767 mmHg 88%
    22:00 +16°C° 0.1 mm 1 m/s 767 mmHg 88%
    23:00 +16°C° 0.1 mm 1 m/s 767 mmHg 87%

    24 Octobre, Jeudi

    Heure Température Précipitation Vent Pression Humidité
    00:00 +15°C° 0.1 mm 0 m/s 767 mmHg 86%
    01:00 +16°C° 0.1 mm 1 m/s 767 mmHg 86%
    02:00 +15°C° 0.1 mm 1 m/s 767 mmHg 86%
    03:00 +15°C° 0.1 mm 1 m/s 767 mmHg 86%
    04:00 +15°C° 0.1 mm 1 m/s 767 mmHg 85%
    05:00 +16°C° 0.1 mm 1 m/s 767 mmHg 84%
    06:00 +16°C° 0.1 mm 1 m/s 767 mmHg 83%
    07:00 +16°C° 0.1 mm 1 m/s 767 mmHg 81%
    08:00 +18°C° 0.1 mm 1 m/s 768 mmHg 79%
    09:00 +19°C° 0.1 mm 1 m/s 768 mmHg 77%
    10:00 +19°C° 0 mm 1 m/s 767 mmHg 76%
    11:00 +20°C° 0 mm 1 m/s 767 mmHg 75%
    12:00 +20°C° 0 mm 1 m/s 767 mmHg 75%
    13:00 +20°C° 0 mm 1 m/s 766 mmHg 74%
    14:00 +20°C° 0 mm 2 m/s 766 mmHg 74%
    15:00 +20°C° 0 mm 2 m/s 766 mmHg 73%
    16:00 +19°C° 0 mm 2 m/s 766 mmHg 78%
    17:00 +18°C° 0 mm 2 m/s 766 mmHg 83%
    18:00 +17°C° 0 mm 2 m/s 766 mmHg 88%
    19:00 +17°C° 0 mm 2 m/s 766 mmHg 88%
    20:00 +17°C° 0 mm 2 m/s 766 mmHg 89%
    21:00 +17°C° 0 mm 2 m/s 766 mmHg 90%
    22:00 +18°C° 0 mm 1 m/s 766 mmHg 90%
    23:00 +18°C° 0 mm 1 m/s 766 mmHg 90%

    25 Octobre, Vendredi

    Heure Température Précipitation Vent Pression Humidité
    00:00 +18°C° 0 mm 1 m/s 766 mmHg 90%
    01:00 +18°C° 0 mm 1 m/s 766 mmHg 89%
    02:00 +16°C° 0 mm 0 m/s 766 mmHg 88%
    03:00 +16°C° 0 mm 0 m/s 766 mmHg 88%
    04:00 +16°C° 0.1 mm 0 m/s 766 mmHg 87%
    05:00 +16°C° 0.1 mm 0 m/s 766 mmHg 86%
    06:00 +16°C° 0.1 mm 0 m/s 766 mmHg 85%
    07:00 +19°C° 0.1 mm 1 m/s 766 mmHg 83%
    08:00 +19°C° 0.1 mm 1 m/s 766 mmHg 80%
    09:00 +20°C° 0.1 mm 1 m/s 766 mmHg 78%
    10:00 +21°C° 0.1 mm 1 m/s 766 mmHg 76%
    11:00 +21°C° 0.1 mm 2 m/s 766 mmHg 73%
    12:00 +23°C° 0.1 mm 2 m/s 765 mmHg 71%
    13:00 +21°C° 0.1 mm 2 m/s 765 mmHg 75%
    14:00 +21°C° 0.1 mm 2 m/s 765 mmHg 78%
    15:00 +21°C° 0.1 mm 2 m/s 765 mmHg 81%
    16:00 +20°C° 0 mm 2 m/s 765 mmHg 85%
    17:00 +19°C° 0 mm 2 m/s 765 mmHg 90%
    18:00 +18°C° 0 mm 2 m/s 765 mmHg 94%
    19:00 +18°C° 0.2 mm 2 m/s 765 mmHg 93%
    20:00 +18°C° 0.2 mm 2 m/s 765 mmHg 93%
    21:00 +19°C° 0.2 mm 1 m/s 766 mmHg 92%
    22:00 +19°C° 0.3 mm 1 m/s 765 mmHg 92%
    23:00 +19°C° 0.3 mm 1 m/s 765 mmHg 91%

    26 Octobre, Samedi

    Heure Température Précipitation Vent Pression Humidité
    00:00 +19°C° 0.3 mm 1 m/s 765 mmHg 91%
    01:00 +19°C° 0.3 mm 1 m/s 765 mmHg 90%
    02:00 +19°C° 0.3 mm 1 m/s 765 mmHg 90%
    03:00 +19°C° 0.3 mm 1 m/s 765 mmHg 90%
    04:00 +19°C° 0.4 mm 1 m/s 765 mmHg 90%
    05:00 +19°C° 0.4 mm 1 m/s 765 mmHg 91%
    06:00 +19°C° 0.4 mm 1 m/s 765 mmHg 91%
    07:00 +20°C° 0.4 mm 1 m/s 766 mmHg 88%
    08:00 +20°C° 0.4 mm 2 m/s 766 mmHg 85%
    09:00 +20°C° 0.4 mm 2 m/s 766 mmHg 82%
    10:00 +21°C° 0.3 mm 2 m/s 766 mmHg 79%
    11:00 +21°C° 0.3 mm 3 m/s 766 mmHg 75%
    12:00 +22°C° 0.3 mm 3 m/s 766 mmHg 71%
    13:00 +21°C° 0.2 mm 2 m/s 766 mmHg 74%
    14:00 +21°C° 0.2 mm 2 m/s 765 mmHg 77%
    15:00 +20°C° 0.2 mm 2 m/s 765 mmHg 79%
    16:00 +20°C° 0.1 mm 2 m/s 765 mmHg 82%
    17:00 +20°C° 0.1 mm 1 m/s 765 mmHg 84%
    18:00 +20°C° 0.1 mm 1 m/s 765 mmHg 86%
    19:00 +20°C° 0 mm 1 m/s 765 mmHg 86%
    20:00 +19°C° 0 mm 1 m/s 765 mmHg 87%
    21:00 +17°C° 0 mm 0 m/s 766 mmHg 87%
    22:00 +19°C° 0 mm 1 m/s 765 mmHg 87%
    23:00 +19°C° 0 mm 1 m/s 765 mmHg 87%

    27 Octobre, Dimanche

    Heure Température Précipitation Vent Pression Humidité
    00:00 +19°C° 0 mm 1 m/s 765 mmHg 87%
    01:00 +19°C° 0 mm 1 m/s 765 mmHg 86%
    02:00 +19°C° 0 mm 1 m/s 765 mmHg 85%
    03:00 +17°C° 0 mm 2 m/s 765 mmHg 85%
    04:00 +17°C° 0.1 mm 2 m/s 765 mmHg 85%
    05:00 +17°C° 0.1 mm 2 m/s 766 mmHg 85%
    06:00 +17°C° 0.1 mm 2 m/s 766 mmHg 85%
    07:00 +18°C° 0 mm 2 m/s 766 mmHg 82%
    08:00 +18°C° 0 mm 2 m/s 766 mmHg 79%
    09:00 +19°C° 0 mm 2 m/s 766 mmHg 76%
    10:00 +20°C° 0 mm 2 m/s 766 mmHg 71%
    11:00 +21°C° 0 mm 2 m/s 766 mmHg 66%
    12:00 +23°C° 0 mm 2 m/s 766 mmHg 61%
    13:00 +21°C° 0 mm 2 m/s 765 mmHg 60%
    14:00 +21°C° 0 mm 2 m/s 765 mmHg 59%
    15:00 +21°C° 0 mm 2 m/s 765 mmHg 59%
    16:00 +20°C° 0 mm 2 m/s 765 mmHg 64%
    17:00 +19°C° 0 mm 2 m/s 765 mmHg 68%
    18:00 +19°C° 0 mm 1 m/s 765 mmHg 73%
    19:00 +18°C° 0 mm 1 m/s 765 mmHg 74%
    20:00 +18°C° 0 mm 1 m/s 766 mmHg 75%
    21:00 +18°C° 0 mm 1 m/s 766 mmHg 75%
    22:00 +18°C° 0 mm 1 m/s 765 mmHg 75%
    23:00 +16°C° 0 mm 1 m/s 765 mmHg 75%
    Voir plus